| time (UTC) | temp F | wind direction | speed MPH | gust MPH | rain 1hr in | rain 24hr in | rain mn in | humidity % | barometer mb |
| 20260507140007 | 71 | 210 | 5.0 | 12.0 | 0.00 | 0.00 | 0.00 | 64 | 1017.3 |
| 20260507130005 | 72 | 225 | 5.0 | 17.0 | 0.00 | 0.00 | 0.00 | 58 | 1017.6 |
| 20260507120007 | 74 | 225 | 5.0 | 15.0 | 0.00 | 0.00 | 0.00 | 57 | 1017.8 |
| 20260507110008 | 74 | 192 | 6.0 | 15.0 | 0.00 | 0.00 | 0.00 | 57 | 1017.7 |
| 20260507100005 | 74 | 225 | 5.0 | 13.0 | 0.00 | 0.00 | 0.00 | 57 | 1017.4 |
| 20260507080005 | 71 | 225 | 3.0 | 9.0 | 0.00 | 0.00 | 0.00 | 65 | 1017.4 |
| 20260507070009 | 68 | 0 | 0.0 | 5.0 | 0.00 | 0.00 | 0.00 | 63 | 1017.5 |
| 20260507060005 | 66 | 90 | 0.0 | 0.0 | 0.00 | 0.00 | 0.00 | 58 | 1017.5 |
| 20260507040005 | 49 | 90 | 0.0 | 0.0 | 0.00 | 0.00 | 0.00 | 84 | 1016.4 |
| 20260507030005 | 52 | 45 | 0.0 | 3.0 | 0.00 | 0.00 | 0.00 | 78 | 1016.0 |
| 20260507020007 | 49 | 90 | 0.0 | 1.0 | 0.00 | 0.00 | 0.00 | 86 | 1015.9 |
| 20260507000005 | 49 | 45 | 0.0 | 2.0 | 0.00 | 0.00 | 0.00 | 84 | 1015.9 |
| 20260506230005 | 51 | 90 | 0.0 | 2.0 | 0.00 | 0.00 | 0.00 | 84 | 1016.1 |
| 20260506220005 | 52 | 90 | 0.0 | 2.0 | 0.00 | 0.00 | 0.00 | 83 | 1016.4 |
| 20260506210004 | 55 | 90 | 0.0 | 3.0 | 0.00 | 0.00 | 0.00 | 80 | 1016.4 |
| 20260506200005 | 56 | 45 | 0.0 | 3.0 | 0.00 | 0.00 | 0.00 | 77 | 1015.9 |
| 20260506190005 | 60 | 90 | 1.0 | 3.0 | 0.00 | 0.00 | 0.00 | 76 | 1015.8 |
| 20260506180005 | 60 | 180 | 0.0 | 1.0 | 0.00 | 0.00 | 0.00 | 80 | 1015.1 |
| 20260506160005 | 67 | 225 | 4.0 | 10.0 | 0.00 | 0.00 | 0.00 | 59 | 1015.1 |
| 20260506150005 | 71 | 225 | 6.0 | 14.0 | 0.00 | 0.00 | 0.00 | 51 | 1015.1 |